This is the latest recevied weather packets stored in our database for station/object N3FAA. If no packets are shown the sender has not sent any weather packets the latest 10 day(s).
| Time | Temp. | Humidity | Pressure | Rain* | Wind** | Luminosity | Snow |
|---|---|---|---|---|---|---|---|
| 1777846231 | 16.11° C | 60% | 1008.4 hPa | 0 mm | - | 631 W/m² | - |
| 1777845927 | 16.11° C | 61% | 1008.3 hPa | 0 mm | - | 621 W/m² | - |
| 1777845624 | 16.67° C | 60% | 1008.4 hPa | 0 mm | - | 631 W/m² | - |
| 1777845321 | 16.67° C | 60% | 1008.7 hPa | 0 mm | - | 600 W/m² | - |
| 1777845018 | 17.22° C | 58% | 1008.6 hPa | 0 mm | - | 584 W/m² | - |
| 1777844716 | 16.67° C | 60% | 1008.7 hPa | 0 mm | - | 591 W/m² | - |
| 1777844412 | 17.22° C | 60% | 1008.9 hPa | 0 mm | - | 619 W/m² | - |
| 1777844111 | 17.22° C | 59% | 1009.1 hPa | 0 mm | - | 628 W/m² | - |
| 1777843807 | 17.22° C | 56% | 1008.7 hPa | 0 mm | - | 652 W/m² | - |
| 1777843505 | 17.22° C | 57% | 1008.5 hPa | 0 mm | - | 676 W/m² | - |
| 1777843202 | 16.67° C | 58% | 1008.5 hPa | 0 mm | - | 644 W/m² | - |
| 1777842899 | 17.78° C | 58% | 1008.5 hPa | 0 mm | - | 625 W/m² | - |
| 1777842594 | 17.22° C | 57% | 1008.3 hPa | 0 mm | - | 625 W/m² | - |
| 1777842291 | 17.78° C | 57% | 1008.7 hPa | 0 mm | - | 675 W/m² | - |
| 1777841986 | 17.78° C | 53% | 1008.4 hPa | 0 mm | - | 686 W/m² | - |
| 1777841683 | 17.78° C | 55% | 1008.8 hPa | 0 mm | - | 691 W/m² | - |
| 1777841379 | 18.89° C | 50% | 1008.7 hPa | 0 mm | - | 721 W/m² | - |
| 1777841077 | 18.33° C | 52% | 1008.8 hPa | 0 mm | - | 753 W/m² | - |
| 1777840773 | 18.33° C | 53% | 1008.9 hPa | 0 mm | - | 753 W/m² | - |
| 1777840471 | 17.78° C | 54% | 1008.8 hPa | 0 mm | - | 736 W/m² | - |
| 1777840167 | 18.89° C | 53% | 1008.9 hPa | 0 mm | - | 698 W/m² | - |
| 1777839866 | 18.89° C | 51% | 1009.1 hPa | 0 mm | - | 710 W/m² | - |
| 1777839564 | 18.89° C | 52% | 1008.9 hPa | 0 mm | - | 745 W/m² | - |
| 1777839261 | 18.89° C | 52% | 1009.1 hPa | 0 mm | - | 731 W/m² | - |
| 1777838958 | 19.44° C | 50% | 1009.2 hPa | 0 mm | - | 705 W/m² | - |
* Rain latest hour (hover to see other rain measurements)
** Current wind speed in m/s (hover to see current wind gust speed)